Puerto de Leitariegos

latitud = 42° 59' 50''N | longitud = 006° 25' 07''W
1530 metros sobre el nivel del mar | datos mensuales

Fecha, hora, temperatura, viento dirección y velocidad, humedad y presión.

  • 21-01-2018 02:00:00 | 3.60°C | Norte |17.00 km/h | 94.00% | 857.10 hPa
  • 21-01-2018 01:00:00 | 0.00°C | 0 |0.00 km/h | 0.00% | 0.00 hPa
  • 21-01-2018 00:00:00 | 4.60°C | Noroeste |15.00 km/h | 91.00% | 856.90 hPa
  • 20-01-2018 23:00:00 | 0.00°C | 0 |0.00 km/h | 0.00% | 0.00 hPa
  • 20-01-2018 22:00:00 | 4.10°C | Noroeste |10.00 km/h | 94.00% | 856.90 hPa
  • 20-01-2018 21:00:00 | 4.30°C | Noroeste |13.00 km/h | 92.00% | 856.80 hPa
  • 20-01-2018 20:00:00 | 0.00°C | 0 |0.00 km/h | 0.00% | 0.00 hPa
  • 20-01-2018 19:00:00 | 4.40°C | Noroeste |12.00 km/h | 92.00% | 856.00 hPa
  • 20-01-2018 18:00:00 | 4.10°C | Noroeste |11.00 km/h | 93.00% | 855.50 hPa
  • 20-01-2018 17:00:00 | 0.00°C | 0 |0.00 km/h | 0.00% | 0.00 hPa
  • 20-01-2018 16:00:00 | 3.90°C | Noroeste |13.00 km/h | 94.00% | 854.70 hPa
  • 20-01-2018 15:00:00 | 4.50°C | Noroeste |17.00 km/h | 90.00% | 854.30 hPa
  • 20-01-2018 14:00:00 | 4.00°C | Noroeste |13.00 km/h | 94.00% | 854.30 hPa
  • 20-01-2018 13:00:00 | 0.00°C | 0 |0.00 km/h | 0.00% | 0.00 hPa
  • 20-01-2018 12:00:00 | 3.60°C | Noroeste |21.00 km/h | 91.00% | 855.10 hPa
  • 20-01-2018 11:00:00 | 3.00°C | Noroeste |15.00 km/h | 91.00% | 854.80 hPa
  • 20-01-2018 10:00:00 | 0.00°C | 0 |0.00 km/h | 0.00% | 0.00 hPa
  • 20-01-2018 09:00:00 | 1.60°C | Noroeste |23.00 km/h | 83.00% | 854.20 hPa
  • 20-01-2018 08:00:00 | 2.50°C | Noroeste |15.00 km/h | 80.00% | 853.90 hPa
  • 20-01-2018 07:00:00 | 0.00°C | 0 |0.00 km/h | 0.00% | 0.00 hPa
  • 20-01-2018 06:00:00 | 3.20°C | Noroeste |14.00 km/h | 47.00% | 853.50 hPa
  • 20-01-2018 05:00:00 | 3.60°C | Noroeste |17.00 km/h | 41.00% | 853.50 hPa
  • 20-01-2018 04:00:00 | 0.00°C | 0 |0.00 km/h | 0.00% | 0.00 hPa
  • 20-01-2018 03:00:00 | 2.50°C | Noroeste |10.00 km/h | 44.00% | 854.00 hPa